Weather History for Roatan, Honduras

Change the Weather History Date:

Friday, June 21, 2013

  Actual Average Record
Temperature  
Mean Temperature 82 °F -  
Max Temperature 90 °F 86 °F 91 °F (2005)
Min Temperature 73 °F 78 °F 66 °F (2001)
Cooling Degree Days 16    
Growing Degree Days 32 (Base 50)    
Moisture  
Dew Point 76 °F    
Average Humidity 71    
Maximum Humidity 84    
Minimum Humidity 58    
Precipitation  
Precipitation 0.00 in - - ()
Sea Level Pressure  
Sea Level Pressure 29.92 in    
Wind  
Wind Speed 16 mph ()    
Max Wind Speed 24 mph    
Max Gust Speed -    
Visibility 7.1 miles    
Events      
Averages and records for this station are not official NWS values.
T = Trace of Precipitation, MM = Missing Value Source: Averaged Metar Reports

Daily Weather History Graph

Daily Weather History Graph

Search for Another Location

Airport:

Trip Planner

Search our weather history database for the weather conditions in past years. The results will help you decide how hot, cold, wet, or windy it might be!

Date:

Astronomy

Jun. 21, 2013 Rise Set
Actual Time 5:14 AM CST 6:21 PM CST
Civil Twilight 4:51 AM CST 6:44 PM CST
Nautical Twilight 4:22 AM CST 7:13 PM CST
Astronomical Twilight 3:53 AM CST 7:42 PM CST
Moon 4:40 PM CST (6/21) 3:18 AM CST (6/21)
Length of Visible Light 13h 53m
Length of Day
13h 06m
Waxing Gibbous, 95% of the Moon is Illuminated
Jun 21
Waxing Gibbous
Jun 23
Full
Jun 29
Last Quarter
Jul 8
New
Jul 15
First Quarter

Hourly Weather History & Observations

Time (CST) Temp. Heat Index Dew Point Humidity Pressure Visibility Wind Dir Wind Speed Gust Speed Precip Events Conditions
6:00 AM 80 °F - 75 °F 80% 29.90 in 9 mi East 18.4 mph - -  
6:00 AM 80.6 °F 86.2 °F 75.2 °F 84% 29.89 in 6.2 mi East 18.4 mph - N/A   Scattered Clouds
7:00 AM 82.4 °F 89.5 °F 75.2 °F 79% 29.92 in 6.2 mi East 21.9 mph - N/A   Scattered Clouds
8:00 AM 84.2 °F 92.3 °F 75.2 °F 74% 29.95 in 6.2 mi East 19.6 mph - N/A   Scattered Clouds
9:00 AM 85 °F - 76 °F 67% 29.95 in 10 mi East 18.4 mph - -   Haze
9:00 AM 84.2 °F 92.3 °F 75.2 °F 74% 29.95 in 6.2 mi East 18.4 mph - N/A   Scattered Clouds
10:00 AM 86.0 °F 96.9 °F 77.0 °F 74% 29.95 in 6.2 mi East 18.4 mph - N/A   Mostly Cloudy
11:00 AM 87.8 °F 99.7 °F 77.0 °F 70% 29.95 in 6.2 mi East 16.1 mph - N/A   Mostly Cloudy
12:00 PM 88 °F - 76 °F 60% 29.94 in 10 mi East 19.6 mph - -   Haze
12:00 PM 87.8 °F 97.6 °F 75.2 °F 66% 29.95 in 6.2 mi East 19.6 mph - N/A   Mostly Cloudy
1:00 PM 87.8 °F 99.7 °F 77.0 °F 70% 29.92 in 6.2 mi East 19.6 mph - N/A   Scattered Clouds
2:00 PM 87.8 °F 95.6 °F 73.4 °F 62% 29.92 in 6.2 mi East 24.2 mph - N/A   Scattered Clouds
3:00 PM 88 °F - 75 °F 58% 29.90 in 10 mi East 19.6 mph - -   Haze
3:00 PM 87.8 °F 97.6 °F 75.2 °F 66% 29.89 in 6.2 mi East 19.6 mph - N/A   Scattered Clouds
4:00 PM 87.8 °F 97.6 °F 75.2 °F 66% 29.89 in - North - - N/A   Scattered Clouds
5:00 PM 86.0 °F 96.9 °F 77.0 °F 74% 29.86 in 6.2 mi East 15.0 mph - N/A   Scattered Clouds
6:00 PM 84 °F - 75 °F 67% 29.90 in 10 mi ENE 15.0 mph - -   Haze
6:00 PM 84.2 °F 92.3 °F 75.2 °F 74% 29.89 in 6.2 mi ENE 15.0 mph - N/A   Scattered Clouds
7:00 PM 82.4 °F 89.5 °F 75.2 °F 79% 29.89 in 6.2 mi NE 13.8 mph - N/A   Scattered Clouds
8:00 PM 82.4 °F 89.5 °F 75.2 °F 79% 29.92 in 6.2 mi ENE 12.7 mph - N/A   Mostly Cloudy